Flag for Switzerland Weather past 2 weeks in Langenthal, Bern, Switzerland

37 °F

Light rain. Passing clouds.

Feels Like: 37 °F
Forecast: 23 / 35 °F
Wind: 2 mph from Southwest

Location: Grenchen

Current Time: Nov 26, 2015 at 2:42:07 AM

Latest Report: Nov 26, 2015 at 2:20 AM

Visibility: 3 mi

Pressure: 29.80 "Hg

Humidity: 93%

Dew point: 36 °F

Location of LangenthalLocation

Historic Weather in Langenthal — Graph


Langenthal temperature yesterday

Maximum temperature yesterday: 39 °F (at 10:50 AM)
Minimum temperature yesterday: 34 °F (at 2:20 AM)
Average temperature yesterday: 37 °F

Past Weeks' High & Low Weather Summary

High63 °F (Nov 15, 1:50 PM)100% (Nov 11, 1:20 AM)30.51 "Hg (Nov 11, 1:20 AM)
Low23 °F (Nov 24, 2:20 AM)48% (Nov 15, 12:20 PM)29.45 "Hg (Nov 21, 12:50 PM)
Average44 °F86%30.13 "Hg
* Reported Nov 11 1:20 AM — Nov 26 1:20 AM, Langenthal, Weather by CustomWeather, © 2015

Note: Actual official high and low records may vary slightly from our data, if they occured in-between our weather recording intervals... More about our weather records


Langenthal weather history for previous 24 hours

Time TempWeatherWind HumidityBarometerVisibility
1:20 AM
Thu, Nov 26
36 °FPassing clouds.2 mph100%29.77 "Hg5 mi
12:50 AM36 °FPassing clouds.3 mph100%29.77 "Hg4 mi
12:20 AM37 °FLight rain. Passing clouds.3 mph93%29.77 "HgN/A
11:20 PM
Wed, Nov 25
37 °FLight rain. Passing clouds.2 mph93%29.77 "HgN/A
10:50 PM37 °FRain. Passing clouds.3 mph100%29.74 "Hg4 mi
10:20 PM37 °FRain. Fog.2 mph100%29.77 "Hg2 mi
9:50 PM37 °FLight rain. Fog.1 mph100%29.77 "Hg3 mi
9:20 PM37 °FPartly cloudy.1 mph100%29.77 "Hg4 mi
8:50 PM37 °FMostly cloudy.2 mph100%29.77 "Hg4 mi
8:20 PM37 °FPassing clouds.2 mph100%29.77 "HgN/A
7:50 PM36 °FFog.1 mph100%29.77 "Hg2 mi
7:20 PM37 °FPartly cloudy.1 mph100%29.77 "HgN/A
6:50 PM37 °FMostly cloudy.3 mph100%29.77 "HgN/A
6:20 PM39 °FPartly cloudy.5 mph93%29.77 "Hg5 mi
5:50 PM39 °FSprinkles. Partly cloudy.3 mph93%29.77 "Hg5 mi
5:20 PM39 °FLight rain. Partly sunny.6 mph93%29.77 "HgN/A
4:50 PM39 °FLight rain. More clouds than sun.No wind93%29.77 "Hg5 mi
4:20 PM39 °FBroken clouds.8 mph93%29.77 "HgN/A
3:50 PM39 °FPartly sunny.9 mph93%29.77 "HgN/A
3:20 PM39 °FBroken clouds.12 mph93%29.77 "HgN/A
2:50 PM39 °FScattered showers. Broken clouds.13 mph93%29.77 "HgN/A
2:20 PM39 °FBroken clouds.1 mph93%29.77 "HgN/A
1:50 PM39 °FPartly sunny.No wind100%29.77 "HgN/A
1:20 PM39 °FSprinkles. Partly sunny.9 mph100%29.80 "HgN/A
12:50 PM39 °FSprinkles. Partly sunny.14 mph93%29.80 "HgN/A
12:20 PM39 °FSprinkles. Partly sunny.10 mph93%29.83 "HgN/A
11:50 AM39 °FOvercast.12 mph93%29.83 "HgN/A
11:20 AM39 °FOvercast.3 mph93%29.86 "HgN/A
10:50 AM39 °FSprinkles. Broken clouds.9 mph93%29.86 "HgN/A
10:20 AM37 °FLow clouds.5 mph100%29.86 "HgN/A
9:50 AM37 °FLight rain. Partly sunny.9 mph93%29.86 "HgN/A
9:20 AM37 °FLight rain. Low clouds.10 mph93%29.89 "Hg4 mi
8:50 AM36 °FLight rain. Low clouds.8 mph100%29.89 "Hg4 mi
8:20 AM36 °FLight rain. Low clouds.8 mph100%29.89 "Hg3 mi
7:50 AM36 °FLight rain. Low clouds.8 mph100%29.89 "Hg4 mi
7:20 AM36 °FLight rain. Passing clouds.7 mph100%29.89 "HgN/A
6:50 AM36 °FLight rain. Low clouds.8 mph93%29.89 "HgN/A
6:20 AM36 °FRain. Low clouds.8 mph93%29.89 "HgN/A
5:50 AM36 °FLight rain. Low clouds.9 mph93%29.89 "Hg4 mi
5:20 AM36 °FLight snow. Low clouds.8 mph93%29.92 "HgN/A
4:20 AM34 °FLight snow. Low clouds.8 mph100%29.92 "HgN/A
3:50 AM34 °FLight snow. Low clouds.7 mph100%29.92 "Hg6 mi
3:20 AM34 °FLight snow. Partly cloudy.9 mph100%29.92 "HgN/A
2:50 AM34 °FLight snow. Partly cloudy.13 mph100%29.95 "HgN/A
2:20 AM34 °FLight snow. Partly cloudy.12 mph100%29.95 "Hg6 mi
Weather by CustomWeather, © 2015

See weather overviewHow to use our weather pages